Location: Newark
(49.3808°N, 3.1844°E)
Time: 21:42:13
(UTC+00:00)

Vanguard 2 Rocket - Pass Details

Date: 01 December 2019
Orbit: 554 x 3326 km, 32.9° (Epoch: 06 December)

Event Time Altitude Azimuth Distance (km) Brightness Sun altitude
Rises 20:25:50 0° 217° (SW) 4,372 10.6 -43.6°
Enters shadow 20:27:57 - 209° (SSW) 3,724 10.1 -43.9°
Reaches altitude 10° 20:32:48 10° 177° (S) 2,617 - -44.7°
Maximum altitude 20:33:14 10° 173° (S) 2,567 - -44.7°
Drops below altitude 10° 20:33:39 10° 168° (SSE) 2,529 - -44.8°
Sets 20:38:42 0° 121° (ESE) 2,998 - -45.6°
